#timestamp,LO_Frequency,Hit,StdDev 
1508731215.3,286047001.0,N
1508731235.1,286046997.9,N
1508731236.0,286046997.9,N
1508731255.8,286046999.7,N
1508731275.7,286047001.9,N
1508731295.5,286047004.0,N
1508731315.3,286047002.5,N
1508731335.2,286047001.3,N
1508731355.0,286047002.0,N
1508731355.9,286047002.0,N
1508731375.7,286047003.1,N
1508731395.6,286047003.1,N
1508731415.4,286047004.6,N
1508731435.3,286047008.6,N
1508731455.1,286047006.4,N
1508731456.0,286047006.4,N
1508731475.8,286047005.5,N
1508731495.7,286047003.5,N
1508731515.5,286047002.4,N
1508731535.3,286047005.1,N
1508731555.2,286047011.4,Y
1508731575.9,286047006.8,P
1508731595.7,286047006.8,P
1508731615.6,286047001.5,N
1508731635.4,286046998.4,N
1508731655.2,286046999.4,N
1508731675.1,286047002.3,N
1508731676.0,286047002.3,N
1508731695.8,286047004.3,N
1508731715.6,286047006.0,N
1508731735.5,286047004.1,N
1508731755.3,286047003.8,N
1508731775.1,286047002.5,N
1508731795.9,286046999.0,N
1508731815.7,286046998.1,N
1508731835.5,286047000.5,N
1508731855.4,286047001.6,N
1508731875.2,286046996.5,N
1508731895.0,286046995.8,N
1508731896.0,286046995.8,N
1508731915.8,286046995.2,N
1508731935.6,286046996.9,N
1508731955.5,286046993.4,N
1508731975.3,286046996.1,N
1508731995.1,286046999.2,N
1508732015.9,286046995.0,N
1508732035.7,286046997.8,N
1508732055.5,286046995.1,N
1508732075.4,286046998.3,N
1508732095.2,286046998.5,N
1508732115.0,286046995.1,N
1508732115.9,286046995.1,N
1508732135.8,286046997.3,N
1508732155.6,286046996.6,N
1508732175.4,286046997.7,N
1508732195.3,286046997.6,N
1508732215.1,286046995.2,N
1508732216.0,286046995.2,N
1508732235.8,286046995.5,N
1508732255.7,286047000.4,N
1508732275.5,286047002.5,N
1508732295.3,286047001.4,N
1508732315.2,286047000.9,N
1508732335.9,286047001.3,N
1508732355.7,286047001.7,N
1508732375.6,286047002.7,N
1508732395.4,286046998.7,N
1508732415.2,286046998.4,N
1508732435.1,286047000.1,N
1508732436.0,286047000.1,N
1508732455.8,286047001.4,N
1508732475.6,286047004.3,N
1508732495.5,286047003.1,N
1508732515.3,286047002.0,N
1508732535.1,286047001.0,N
1508732555.9,286046998.8,N
1508732575.7,286047001.0,N
1508732595.5,286047003.9,N
1508732615.4,286047004.3,N
1508732635.2,286047005.2,N
1508732655.0,286047007.6,N
1508732656.0,286047007.6,N
1508732675.8,286047004.8,N
1508732695.6,286047003.0,N
1508732715.5,286047009.0,N
1508732735.3,286047010.8,Y
1508732755.1,286047013.3,P
1508732775.9,286047011.5,N
1508732795.7,286047013.0,N
1508732815.5,286047016.9,Y
1508732835.4,286047008.7,P
1508732855.2,286047010.7,P
1508732875.0,286047010.6,P
1508732876.0,286047010.6,Y
1508732895.8,286046997.2,P
1508732915.6,286046996.6,N
1508732935.4,286046998.0,N
1508732955.3,286046993.7,N
1508732975.1,286046994.0,N
1508732995.8,286046990.4,N
1508733015.7,286046992.5,N
1508733035.5,286046995.3,N
1508733055.4,286046997.2,N
1508733075.2,286046996.0,N
1508733095.0,286046998.2,N
1508733095.9,286046998.2,N
1508733115.8,286046999.4,N
1508733135.6,286046997.7,N
1508733155.4,286046997.2,N
1508733175.3,286046991.9,N
1508733195.1,286046991.8,N
1508733196.0,286046991.8,N
1508733215.8,286046994.1,N
1508733235.7,286046994.1,N
1508733255.5,286046997.7,N
1508733275.3,286046995.8,N
1508733295.2,286046994.2,N
1508733315.9,286046995.6,N
1508733335.7,286046991.7,N
1508733355.6,286046994.7,N
1508733375.4,286046993.5,N
1508733395.2,286046993.9,N
1508733415.1,286046993.8,N
1508733416.0,286046993.8,N
1508733435.8,286046997.8,N
1508733455.6,286046995.9,N
1508733475.5,286046994.0,N
1508733495.3,286046995.7,N
1508733515.1,286046996.1,N
1508733535.9,286046992.1,Y
1508733555.7,286047000.2,P
1508733575.6,286047000.7,N
1508733595.4,286046998.8,N
1508733615.2,286046998.9,N
1508733635.1,286047000.7,N
1508733636.0,286047000.7,N
1508733655.8,286046998.8,N
1508733675.6,286046997.3,N
1508733695.5,286046993.6,Y
1508733715.3,286046992.4,P
1508733735.1,286046990.6,N
1508733755.9,286046994.5,N
1508733775.7,286046994.5,N
1508733795.5,286046993.0,N
1508733815.4,286046991.2,Y
1508733835.2,286046993.6,P
1508733855.0,286046994.2,P
1508733856.0,286046994.2,P
1508733875.8,286046994.2,Y
1508733895.6,286046999.5,P
1508733915.5,286047002.8,N
1508733935.3,286047001.8,N
1508733955.1,286047002.6,N
1508733975.9,286047001.7,N
1508733995.7,286046998.6,N
1508734015.5,286047000.6,N
1508734035.4,286046998.1,N
1508734055.2,286046997.2,N
1508734075.0,286046995.5,N
1508734075.9,286046995.5,N
1508734095.8,286046995.6,N
1508734115.6,286046998.0,N
1508734135.4,286046995.4,N
1508734155.3,286046998.0,N
1508734175.1,286046995.1,N
1508734195.8,286046999.4,N
1508734215.7,286046998.7,N
1508734235.5,286047001.1,N
1508734255.3,286046999.3,N
1508734275.2,286046997.5,N
1508734295.9,286046995.5,N
1508734315.7,286046996.0,N
1508734335.6,286046995.6,N
1508734355.4,286046995.7,N
1508734375.2,286046995.5,N
1508734395.1,286047000.4,N
1508734396.0,286047000.4,N
1508734415.8,286047001.1,N
1508734435.6,286046999.2,N
1508734455.5,286047004.2,N
1508734475.3,286046998.2,N
1508734495.2,286047001.0,N
1508734515.9,286047000.2,N
1508734535.7,286047002.7,N
1508734555.6,286047002.3,N
1508734575.4,286047000.0,N
1508734595.2,286047001.1,N
1508734615.1,286046998.3,N
1508734616.0,286046998.3,N
1508734635.8,286046998.5,N
1508734655.6,286046998.9,N
1508734675.5,286047003.4,N
1508734695.3,286047006.8,N
1508734715.1,286047008.1,N
1508734735.9,286047012.9,Y
1508734755.7,286047016.9,P
1508734775.5,286047016.3,N
1508734795.4,286047020.3,N
